Weather History for Cheraw, SC

Change the Weather History Date:

Tuesday, November 20, 2012

  Actual Average (KFLO) Record (KFLO)
Temperature  
Mean Temperature 50 °F 54 °F  
Max Temperature 60 °F 66 °F 81 °F (1988)
Min Temperature 37 °F 42 °F 20 °F (1951)
Degree Days  
Heating Degree Days 16 11  
Month to date heating degree days 176  
Since 1 July heating degree days 293  
Cooling Degree Days 0 0  
Month to date cooling degree days 16  
Year to date cooling degree days 2058  
Moisture  
Dew Point 44 °F    
Average Humidity 86    
Maximum Humidity 100    
Minimum Humidity 55    
Precipitation  
Precipitation 0.00 in 0.09 in 1.09 in (1952)
Month to date precipitation 1.75  
Year to date precipitation 38.98  
Sea Level Pressure  
Sea Level Pressure 30.11 in    
Wind  
Wind Speed 7 mph (North)    
Max Wind Speed 16 mph    
Max Gust Speed 23 mph    
Visibility 9 miles    
Events      
T = Trace of Precipitation, MM = Missing Value Source: NWS Daily Summary

Daily Weather History Graph

Daily Weather History Graph

Search for Another Location

Airport:

Trip Planner

Search our weather history database for the weather conditions in past years. The results will help you decide how hot, cold, wet, or windy it might be!

Date:

Astronomy

Nov. 20, 2012 Rise Set
Actual Time 6:59 AM EST 5:11 PM EST
Civil Twilight 6:31 AM EST 5:39 PM EST
Nautical Twilight 6:01 AM EST 6:09 PM EST
Astronomical Twilight 5:31 AM EST 6:39 PM EST
Moon 12:40 PM EST (11/20) No Moon Set
Length of Visible Light 11h 07m
Length of Day
10h 12m
Waxing Crescent, 51% of the Moon is Illuminated
Nov 20
Waxing Crescent
Nov 28
Full
Dec 6
Last Quarter
Dec 13
New
Dec 20
First Quarter

Hourly Weather History & Observations

Time (EST) Temp. Windchill Dew Point Humidity Pressure Visibility Wind Dir Wind Speed Gust Speed Precip Events Conditions
12:15 AM 46.4 °F 41.9 °F 42.8 °F 87% 30.16 in 10.0 mi NNE 9.2 mph - N/A   Clear
12:35 AM 46.4 °F 42.9 °F 42.8 °F 87% 30.16 in 10.0 mi North 6.9 mph - N/A   Clear
12:55 AM 44.6 °F 41.4 °F 42.8 °F 93% 30.16 in 10.0 mi North 5.8 mph - N/A   Clear
1:35 AM 44.6 °F 40.2 °F 42.8 °F 93% 30.14 in 10.0 mi North 8.1 mph - N/A   Clear
1:55 AM 44.6 °F 40.2 °F 42.8 °F 93% 30.15 in 10.0 mi NNW 8.1 mph - N/A   Clear
2:15 AM 44.6 °F 38.8 °F 42.8 °F 93% 30.15 in 10.0 mi North 11.5 mph 17.3 mph N/A   Clear
2:55 AM 44.6 °F 37.8 °F 42.8 °F 93% 30.15 in 10.0 mi North 15.0 mph 21.9 mph N/A   Clear
3:35 AM 44.6 °F 37.4 °F 42.8 °F 93% 30.14 in 10.0 mi North 16.1 mph 23.0 mph N/A   Clear
7:15 AM 41.0 °F 35.8 °F 39.2 °F 93% 30.17 in 10.0 mi NW 8.1 mph - N/A   Mostly Cloudy
7:35 AM 42.8 °F 38.0 °F 42.8 °F 100% 30.17 in 10.0 mi North 8.1 mph - N/A   Mostly Cloudy
7:55 AM 44.6 °F 40.2 °F 42.8 °F 93% 30.17 in 9.0 mi NNE 8.1 mph - N/A   Overcast
8:15 AM 44.6 °F 39.7 °F 44.6 °F 100% 30.17 in 7.0 mi North 9.2 mph 17.3 mph N/A   Overcast
8:35 AM 44.6 °F 40.2 °F 44.6 °F 100% 30.17 in 8.0 mi NNE 8.1 mph - N/A   Overcast
8:55 AM 44.6 °F 40.2 °F 44.6 °F 100% 30.17 in 8.0 mi North 8.1 mph - N/A   Overcast
9:15 AM 46.4 °F 41.5 °F 44.6 °F 93% 30.17 in 9.0 mi North 10.4 mph - N/A   Overcast
9:35 AM 46.4 °F 42.4 °F 44.6 °F 93% 30.17 in 10.0 mi NNE 8.1 mph - N/A   Mostly Cloudy
9:55 AM 48.2 °F - 44.6 °F 87% 30.17 in 10.0 mi NNE 9.2 mph - N/A   Partly Cloudy
10:15 AM 48.2 °F - 44.6 °F 87% 30.17 in 10.0 mi NNW 5.8 mph - N/A   Clear
10:35 AM 51.8 °F - 46.4 °F 82% 30.17 in 10.0 mi North 6.9 mph - N/A   Clear
10:55 AM 53.6 °F - 46.4 °F 77% 30.16 in 10.0 mi NE 6.9 mph - N/A   Clear
11:15 AM 53.6 °F - 46.4 °F 77% 30.15 in 10.0 mi NNE 9.2 mph - N/A   Clear
11:35 AM 55.4 °F - 46.4 °F 72% 30.14 in 9.0 mi NNW 11.5 mph 18.4 mph N/A   Clear
11:55 AM 55.4 °F - 46.4 °F 72% 30.13 in 10.0 mi NE 10.4 mph - N/A   Clear
12:15 PM 55.4 °F - 46.4 °F 72% 30.12 in 10.0 mi NNW 11.5 mph 16.1 mph N/A   Clear
12:55 PM 57.2 °F - 48.2 °F 72% 30.10 in 10.0 mi North 11.5 mph 17.3 mph N/A   Clear
1:15 PM 59.0 °F - 46.4 °F 63% 30.09 in 10.0 mi NE 11.5 mph 19.6 mph N/A   Clear
1:35 PM 60.8 °F - 44.6 °F 55% 30.08 in 10.0 mi NE 15.0 mph 21.9 mph N/A   Clear
1:55 PM 60.8 °F - 46.4 °F 59% 30.07 in 10.0 mi North 15.0 mph 20.7 mph N/A   Clear
2:15 PM 60.8 °F - 46.4 °F 59% 30.07 in 10.0 mi NE 8.1 mph 17.3 mph N/A   Clear
2:55 PM 59.0 °F - 44.6 °F 59% 30.06 in 10.0 mi NNE 10.4 mph 16.1 mph N/A   Clear
3:15 PM 59.0 °F - 44.6 °F 59% 30.06 in 10.0 mi North 9.2 mph - N/A   Clear
3:35 PM 57.2 °F - 44.6 °F 63% 30.07 in 10.0 mi North 5.8 mph - N/A   Clear
3:55 PM 59.0 °F - 46.4 °F 63% 30.06 in 10.0 mi Calm Calm - N/A   Clear
4:15 PM 60.8 °F - 44.6 °F 55% 30.06 in 10.0 mi NE 6.9 mph - N/A   Clear
4:35 PM 59.0 °F - 46.4 °F 63% 30.06 in 10.0 mi North 9.2 mph - N/A   Clear
4:55 PM 57.2 °F - 46.4 °F 67% 30.06 in 10.0 mi North 4.6 mph - N/A   Clear
5:15 PM 53.6 °F - 46.4 °F 77% 30.06 in 10.0 mi Calm Calm - N/A   Clear
5:35 PM 53.6 °F - 48.2 °F 82% 30.07 in 10.0 mi Calm Calm - N/A   Clear
5:55 PM 50.0 °F - 46.4 °F 87% 30.07 in 10.0 mi Calm Calm - N/A   Clear
6:15 PM 48.2 °F - 46.4 °F 93% 30.08 in 10.0 mi Calm Calm - N/A   Clear
6:35 PM 48.2 °F - 46.4 °F 93% 30.08 in 10.0 mi Calm Calm - N/A   Clear
6:55 PM 48.2 °F - 46.4 °F 93% 30.08 in 10.0 mi Calm Calm - N/A   Clear
7:15 PM 48.2 °F - 46.4 °F 93% 30.08 in 10.0 mi Calm Calm - N/A   Clear
7:35 PM 46.4 °F - 46.4 °F 100% 30.09 in 10.0 mi Calm Calm - N/A   Clear
7:55 PM 46.4 °F - 46.4 °F 100% 30.09 in 10.0 mi Calm Calm - N/A   Clear
8:15 PM 44.6 °F - 44.6 °F 100% 30.10 in 10.0 mi Calm Calm - N/A   Clear
8:35 PM 44.6 °F - 44.6 °F 100% 30.10 in 10.0 mi Calm Calm - N/A   Clear
8:55 PM 44.6 °F - 44.6 °F 100% 30.09 in 3.0 mi Calm Calm - N/A   Clear
9:15 PM 44.6 °F - 44.6 °F 100% 30.09 in 1.5 mi Calm Calm - N/A   Clear
9:35 PM 44.6 °F - 44.6 °F 100% 30.09 in 5.0 mi Calm Calm - N/A   Clear
9:55 PM 42.8 °F - 42.8 °F 100% 30.10 in 3.0 mi Calm Calm - N/A   Clear
10:15 PM 41.0 °F - 41.0 °F 100% 30.10 in 9.0 mi Calm Calm - N/A   Clear
10:35 PM 41.0 °F - 41.0 °F 100% 30.10 in 9.0 mi Calm Calm - N/A   Clear
10:55 PM 39.2 °F - 39.2 °F 100% 30.10 in 5.0 mi Calm Calm - N/A   Clear
11:15 PM 39.2 °F - 39.2 °F 100% 30.10 in 5.0 mi Calm Calm - N/A   Clear
11:35 PM 41.0 °F - 41.0 °F 100% 30.10 in 10.0 mi Calm Calm - N/A   Clear
11:55 PM 37.4 °F - 37.4 °F 100% 30.10 in 9.0 mi Calm Calm - N/A   Clear